Location: Siratepeler Tepesi
(39.1042°N, 32.0781°E)
Time: 01:00:32
(UTC+00:00)

Spot 2 Rocket - Pass Details

Date: 11 April 2026
Orbit: 751 x 766 km, 98.3° (Epoch: 13 May)

Event Time Altitude Azimuth Distance (km) Brightness Sun altitude
Exits shadow 18:13:56 39° 88° (E) 1,134 3.9 -20.5°
Maximum altitude 18:14:31 40° 71° (ENE) 1,105 4.0 -20.6°
Drops below altitude 10° 18:19:12 10° 2° (N) 2,287 6.3 -21.4°
Sets 18:21:36 0° 356° (N) 3,215 7.2 -21.8°
